CST,Max TemperatureF,Mean TemperatureF,Min TemperatureF,Max Dew PointF,MeanDew PointF,Min DewpointF,Max Humidity, Mean Humidity, Min Humidity, Max Sea Level PressureIn, Mean Sea Level PressureIn, Min Sea Level PressureIn, Max VisibilityMiles, Mean VisibilityMiles, Min VisibilityMiles, Max Wind SpeedMPH, Mean Wind SpeedMPH, Max Gust SpeedMPH,PrecipitationIn, CloudCover, Events, WindDirDegrees
2013-12-1,58,46,34,43,37,29,98,75,51,30.16,30.06,29.93,10,9,3,8,4,,0.00,3,,177
2013-12-2,57,46,34,46,40,34,99,85,62,29.93,29.81,29.74,10,7,1,9,2,,0.00,3,,140
2013-12-3,60,50,39,54,46,38,100,89,68,29.78,29.74,29.71,10,6,0,15,5,16,0.00,3,Fog,144
2013-12-4,69,56,44,61,56,44,100,89,71,29.79,29.70,29.62,10,5,0,24,9,30,0.05,6,Fog-Rain,155
2013-12-5,57,42,26,50,34,26,99,89,78,30.26,30.08,29.81,10,7,1,21,13,28,0.37,8,Rain-Snow,305
2013-12-6,26,24,22,26,23,18,98,93,82,30.52,30.33,30.20,10,4,0,10,8,,0.09,5,Snow,300
2013-12-7,22,14,5,17,12,3,89,81,75,30.67,30.58,30.46,10,10,10,9,7,,0.00,0,,300
2013-12-8,32,27,22,32,26,18,100,93,82,30.44,30.18,30.03,10,5,0,15,9,18,0.00,7,Fog,273
2013-12-9,31,27,23,30,23,19,97,83,66,30.30,30.23,30.10,10,9,2,15,9,16,0.00,4,Snow,282
2013-12-10,33,20,7,23,17,5,99,85,59,30.38,30.31,30.24,10,7,0,14,7,20,0.00,1,Fog-Snow,233
2013-12-11,34,18,2,31,15,0,100,84,66,30.64,30.46,30.36,10,6,0,18,6,24,0.00,2,Fog-Snow,274
2013-12-12,23,10,-3,13,4,-6,93,77,61,30.65,30.51,30.36,10,10,1,9,4,,0.00,0,Snow,167
2013-12-13,37,24,10,35,23,8,100,88,67,30.34,30.20,30.02,10,9,1,16,6,24,0.06,3,Rain-Snow,147
2013-12-14,36,34,32,37,35,31,100,98,92,30.07,29.91,29.80,10,6,0,21,8,28,0.39,8,Fog-Rain,324
2013-12-15,32,30,28,32,28,25,96,88,78,30.22,30.15,30.07,10,9,7,17,12,22,0.00,8,,245
2013-12-16,45,39,33,36,34,32,99,87,67,30.10,30.05,30.02,10,8,5,9,7,,0.00,2,,198
2013-12-17,38,34,29,33,30,28,100,89,77,30.27,30.18,30.07,10,6,2,15,8,16,0.00,3,,276
2013-12-18,46,36,26,34,29,23,94,74,53,30.31,30.20,30.03,10,10,10,14,7,,0.00,0,,184
2013-12-19,59,48,36,50,43,34,91,80,69,30.05,29.99,29.90,10,10,10,20,11,28,0.00,3,,172
2013-12-20,65,58,51,61,56,50,99,89,80,29.89,29.85,29.80,10,9,3,21,13,26,0.23,8,Rain-Thunderstorm,187
2013-12-21,50,44,39,50,43,39,100,100,97,29.83,29.67,29.47,10,5,1,22,9,30,4.83,8,Rain-Thunderstorm,343
2013-12-22,45,40,34,43,38,32,100,95,86,30.21,29.92,29.62,10,8,2,16,11,20,0.01,8,,266
2013-12-23,34,30,24,32,25,19,94,82,75,30.52,30.42,30.22,10,10,10,16,11,22,0.00,8,Snow,301
2013-12-24,24,19,14,19,12,6,82,71,49,30.64,30.55,30.43,10,10,10,16,9,21,0.00,1,Snow,1
2013-12-25,37,30,23,31,24,18,90,76,62,30.43,30.33,30.26,10,10,7,13,7,,0.00,5,,191
2013-12-26,42,34,26,32,29,27,100,83,56,30.43,30.36,30.29,10,9,4,9,6,,0.00,0,,209
2013-12-27,49,39,29,39,32,28,96,82,62,30.43,30.36,30.31,10,10,10,13,6,,0.00,0,,181
2013-12-28,47,39,31,39,35,31,100,83,70,30.30,30.18,29.97,10,10,7,12,7,,0.00,1,,163
2013-12-29,47,36,26,40,33,22,99,88,70,30.22,30.02,29.88,10,9,5,25,9,32,0.07,7,Rain,269
2013-12-30,27,22,17,23,17,14,86,75,58,30.35,30.29,30.21,10,10,3,14,8,18,0.00,4,Snow,313
2013-12-31,38,31,24,30,24,19,87,72,55,30.44,30.32,30.26,10,10,10,14,8,,0.00,1,,204